Showing default

CHECKMATE 10, 57762

Orbit data source: Space-Track

CHECKMATE 10, 57762 is a payload satellite owned by SDA (US) in LEO that was launched on Sat, 02 Sep 2023 UTC via an FALCON 9 launch vehicle from the Air Force Western Test Range (AFWTR). Payload-class satellites include a variety of spacecraft equipped with specific instruments for various scientific and technological missions. These include communications satellites like Starlink; space stations such as the ISS; scientific satellites like the Hubble; Earth observation satellites from companies like Planet Labs, Umbra, and HawkEye 360; GPS; miniature CubeSats for education and research; and military/defense satellites.

Loading next visibility...
Identifier
57762, 2023-133F
Orbit
LEO
Country
Flag of USUS
Related business
Manufacturer
York Space Sys
Mission
Operational Defense Communications
Bus & Motor
S-CLASS, Unknown motor
Mass
~300 kg wet, ~300 kg dry
Launch date (UTC)
2023-09-02 (2 years ago)
Launch vehicle
FALCON 9
Launch site
Air Force Western Test Range (AFWTR)
Object type
Payload
Rocket body
Debris
Shape & HBR
Box + 1 Pan, 1.0 m
Radar Cross Section
0.945 m², Large (>1 m²)

Expand to show TLE details & history
Last TLE update: 10 hours ago

TLE from 10 hours ago
0 CHECKMATE 10
1 57762U 23133F   25346.94786769  .00000105  00000-0  82678-4 0  9996
2 57762  80.9991 186.2086 0006427 148.9048 211.2490 13.85453593115247
Epoch: 2025-12-12T22:44Z
TLE epoch observation values (Epoch: 2025-12-12T22:44:55.768Z)
Latitude
-0.00001°
Longitude
123.09406°
Altitude
951.49 km
Speed
7.374 km/s
True Right ascension
12h 24m 50s
True Declination
0° 00' 00"
Sunlit
Object was in daylight at epoch
Visualization orbit readout
Latitude
Unknown
Longitude
Unknown
Altitude
Unknown
Speed
Unknown
Apparent Right ascension
Unknown
Apparent Declination
Unknown
Sunlit
N/A
Visualization observer readout
Local Sidereal Time
07:30:59
Azimuth
Unknown
Elevation
Unknown
Doppler factor
Unknown
Orbital elements
Apogee altitude
946.53 km
Perigee altitude
937.121 km
Semi-major axis
7,319.963 km
Eccentricity
0.00064
Inclination
80.9991°
RAAN
186.2086°
Arg. of periapsis
148.9048°
True anomaly
211.21082°
Mean anomaly
211.249°
Eccentric anomaly
211.22991°
Mean motion
3.46561 °/min
Orbital period
103.88 mins
BSTAR
0.000082678
Loading maneuver chart data...
Computing Atmospheric mass density...
Loading historical data...
Loading historical data...
Loading historical data...
Loading historical data...
Loading historical data...
Loading historical data...
Loading historical data...

Documentation

Showing up to 5 results
|